Dallas, TX

10:03 AM CST on February 24, 2017 (GMT -0600)
Dallas Love

Weather History for KDAL - September, 2012

Change the Weather History Date:

Sunday, September 9, 2012

  Actual Average Record
Temperature  
Mean Temperature 74 °F -  
Max Temperature 90 °F 88 °F 98 °F (2014)
Min Temperature 59 °F 70 °F 59 °F (2004)
Cooling Degree Days 8    
Growing Degree Days 24 (Base 50)    
Moisture  
Dew Point 49 °F    
Average Humidity 45    
Maximum Humidity 83    
Minimum Humidity 19    
Precipitation  
Precipitation 0.00 in - - ()
Sea Level Pressure  
Sea Level Pressure 30.08 in    
Wind  
Wind Speed 3 mph (NE)    
Max Wind Speed 9 mph    
Max Gust Speed -    
Visibility 10 miles    
Events      
Averages and records for this station are not official NWS values.
T = Trace of Precipitation, MM = Missing Value Source: NWS Daily Summary

Daily Weather History Graph

Daily Weather History Graph

Search for Another Location

Airport or City:

Trip Planner

Search our weather history database for the weather conditions in past years. The results will help you decide how hot, cold, wet, or windy it might be!

Date:

Astronomy

Sep. 09, 2012 Rise Set
Actual Time 7:07 AM CDT 7:40 PM CDT
Civil Twilight 6:42 AM CDT 8:05 PM CDT
Nautical Twilight 6:13 AM CDT 8:34 PM CDT
Astronomical Twilight 5:43 AM CDT 9:04 PM CDT
Moon 12:51 AM CDT (9/9) 3:13 PM CDT (9/9)
Length of Visible Light 13h 23m
Length of Day
12h 33m
Last Quarter, 39% of the Moon is Illuminated
Sep 9
Last Quarter
Sep 15
New
Sep 22
First Quarter
Sep 29
Full
Oct 8
Last Quarter

Hourly Weather History & Observations

Time (CDT) Temp. Dew Point Humidity Pressure Visibility Wind Dir Wind Speed Gust Speed Precip Events Conditions
12:53 AM 66.9 °F 51.1 °F 57% 30.06 in 10.0 mi ENE 5.8 mph - N/A   Clear
1:53 AM 66.0 °F 51.1 °F 59% 30.06 in 10.0 mi Calm Calm - N/A   Clear
2:53 AM 68.0 °F 52.0 °F 56% 30.07 in 10.0 mi Calm Calm - N/A   Clear
3:53 AM 66.0 °F 52.0 °F 60% 30.08 in 10.0 mi Calm Calm - N/A   Clear
4:53 AM 62.1 °F 53.1 °F 72% 30.09 in 10.0 mi Calm Calm - N/A   Clear
5:53 AM 62.1 °F 53.1 °F 72% 30.09 in 10.0 mi Calm Calm - N/A   Clear
6:53 AM 59.0 °F 54.0 °F 83% 30.11 in 10.0 mi NE 3.5 mph - N/A   Scattered Clouds
7:53 AM 64.9 °F 55.0 °F 70% 30.13 in 10.0 mi Calm Calm - N/A   Scattered Clouds
8:53 AM 70.0 °F 55.9 °F 61% 30.14 in 10.0 mi NNW 3.5 mph - N/A   Scattered Clouds
9:53 AM 75.0 °F 53.1 °F 46% 30.15 in 10.0 mi NNW 3.5 mph - N/A   Scattered Clouds
10:53 AM 80.6 °F 48.2 °F 32% 30.17 in 10.0 mi Calm Calm - N/A   Scattered Clouds
11:53 AM 82.9 °F 46.0 °F 27% 30.14 in 10.0 mi Calm Calm - N/A   Scattered Clouds
12:53 PM 84.0 °F 43.0 °F 24% 30.12 in 10.0 mi North 8.1 mph - N/A   Scattered Clouds
1:53 PM 84.9 °F 43.0 °F 23% 30.10 in 10.0 mi NE 9.2 mph - N/A   Scattered Clouds
2:53 PM 87.1 °F 41.0 °F 20% 30.07 in 10.0 mi Variable 4.6 mph - N/A   Scattered Clouds
3:53 PM 87.1 °F 41.0 °F 20% 30.05 in 10.0 mi East 3.5 mph - N/A   Mostly Cloudy
4:53 PM 88.0 °F 41.0 °F 19% 30.04 in 10.0 mi Calm Calm - N/A   Scattered Clouds
5:53 PM 88.0 °F 42.1 °F 20% 30.03 in 10.0 mi NE 8.1 mph - N/A   Scattered Clouds
6:53 PM 86.0 °F 42.1 °F 21% 30.03 in 10.0 mi ENE 4.6 mph - N/A   Scattered Clouds
7:53 PM 82.0 °F 46.0 °F 28% 30.03 in 10.0 mi Calm Calm - N/A   Scattered Clouds
8:53 PM 75.9 °F 52.0 °F 43% 30.05 in 10.0 mi NE 4.6 mph - N/A   Partly Cloudy
9:53 PM 73.0 °F 54.0 °F 51% 30.06 in 10.0 mi ENE 5.8 mph - N/A   Partly Cloudy
10:53 PM 71.1 °F 55.9 °F 59% 30.06 in 10.0 mi Calm Calm - N/A   Partly Cloudy
11:53 PM 70.0 °F 55.9 °F 61% 30.06 in 10.0 mi Calm Calm - N/A   Partly Cloudy